Regional Weather Roundup
Issued by NWS Sioux Falls, SD

Home | Current Version | Previous Version | Graphics & Text | Print | Product List | Glossary Off
Versions: 1 2 3 4 5 6 7 8 9 10 11 12 13 14 15 16 17 18 19 20 21 22 23 24 25 26 27 28 29 30 31 32 33 34 35 36 37 38 39 40 41 42 43 44 45 46 47 48 49 50

000
ASUS43 KFSD 252002
RWRFSD

WEATHER ROUNDUP FOR SE SOUTH DAKOTA/SW MINNESOTA/NW IOWA
NATIONAL WEATHER SERVICE SIOUX FALLS SD
300 PM CDT MON JUL 25 2016

NOTE: "FAIR" INDICATES FEW OR NO CLOUDS BELOW 12,000 FEET WITH NO
SIGNIFICANT WEATHER AND OR OBSTRUCTIONS TO VISIBILITY.


SDZ038>040-050-052>070-252100-
SOUTHEAST SOUTH DAKOTA

CITY           SKY/WX    TMP DP  RH WIND       PRES   REMARKS
BROOKINGS      SUNNY     83  61  47 S9G18     30.09F
CHAMBERLAIN    SUNNY     92  54  27 S15       30.05F
HURON          SUNNY     88  57  34 S14G25    30.04F
MADISON        FAIR      82  64  54 S13       30.11S
MITCHELL       SUNNY     89  60  37 S10       30.06F
SIOUX FALLS    SUNNY     84  58  40 S7        30.10F
WINNER         FAIR      94  42  16 S20G25    30.06F
YANKTON        SUNNY     88  57  35 S10G21    30.07F
$$

MNZ071-072-080-081-089-090-097-098-252100-
SOUTHWEST MINNESOTA

CITY           SKY/WX    TMP DP  RH WIND       PRES   REMARKS
FAIRMONT       SUNNY     84  63  48 W5        30.09F
JACKSON        SUNNY     82  59  44 SW7       30.12S
LUVERNE        SUNNY     82  57  42 W7        30.11F
MARSHALL       NOT AVBL
MONTEVIDEO     SUNNY     84  66  54 W8        30.08F
REDWOOD FALLS  SUNNY     84  62  47 SW9       30.08F
TRACY          SUNNY     84  66  54 W6        30.10F
WINDOM         SUNNY     84  61  45 W7        30.11F
WORTHINGTON    SUNNY     82  63  52 MISG      30.12F
$$

IAZ001>003-012>014-020>022-031-032-NEZ013-014-SDZ071-252100-
NORTHWEST IOWA

CITY           SKY/WX    TMP DP  RH WIND       PRES   REMARKS
CHEROKEE       SUNNY     85  62  44 SW3       30.10F
DENISON        SUNNY     84  61  45 CALM      30.09F
ESTHERVILLE    SUNNY     84  65  52 NE3       30.09F
LE MARS        SUNNY     84  64  51 SW7       30.11F
SHELDON        SUNNY     82  63  51 CALM      30.10F
SIOUX CITY     SUNNY     87  63  44 SW3       30.09F
SPENCER        SUNNY     85  60  42 CALM      30.10F
STORM LAKE       N/A     82  63  51 SE3       30.11F
$$

ABBREVIATIONS USED IN REMARKS
   TC - TEMPERATURE IN CELSIUS
  WCI - WIND CHILL INDEX
   HX - HEAT INDEX
  VSB - VISIBILITY




USA.gov is the U.S. government's official web portal to all federal, state and local government web resources and services.